Regional Weather Roundup
Issued by NWS New Orleans/Baton Rouge, LA

Home | Current Version | Previous Version | Text Only | Print | Product List | Glossary On
Versions: 1 2 3 4 5 6 7 8 9 10 11 12 13 14 15 16 17 18 19 20 21 22 23 24 25 26 27 28 29 30 31 32 33 34 35 36 37 38 39 40 41 42 43 44 45 46 47 48 49 50
234
ASUS44 KLIX 211705
RWRLIX
NEW ORLEANS REGIONAL WEATHER ROUNDUP
NATIONAL WEATHER SERVICE NEW ORLEANS LA
1200 PM CDT SUN SEP 21 2014

NOTE: "FAIR" INDICATES FEW OR NO CLOUDS BELOW 12,000 FEET WITH NO
      SIGNIFICANT WEATHER AND/OR OBSTRUCTIONS TO VISIBILITY.
      SKY/WX - SKY CONDITION AND SIGNIFICANT WEATHER.
      TMP - AIR TEMPERATURE.     DP    - DEWPOINT TEMPERATURE.
      RH  - RELATIVE HUMIDITY.   PRES  - PRESSURE.
      HI  - HEAT INDEX.          WCI   - WIND CHILL INDEX.

*  THESE STATIONS ARE NOT NWS OR FAA STATIONS AND ARE NOT UNDER
   NWS QUALITY CONTROL.

LAZ038-040-048-061>063-065>067-069-211800-
SOUTHEAST LOUISIANA

CITY           SKY/WX    TMP DP  RH WIND       PRES   REMARKS
N.O. AUDUBON     N/A     87  70  56 MISG        N/A
N.O. INTL ARPT MOSUNNY   85  66  53 NE12      30.04S
N.O. LAKEFRONT SUNNY     84  70  62 NE12      30.04S
N.O. DOWNTOWN* PTSUNNY   86  66  51 NE7       30.04S
SLIDELL        SUNNY     85  68  56 N7        30.04S
BATON ROUGE    SUNNY     85  67  54 VRB7      30.05S
BOOTHVILLE     CLOUDY    83  75  77 NE8       30.02S
BELLE CHASSE   MOSUNNY   86  70  58 E10       30.03R
BOGALUSA*        N/A     86  68  54 E7        30.06S
GALLIANO*      NOT AVBL
NEW ROADS*       N/A     83  70  63 NE6       30.06S
GONZALES*        N/A     84  69  60 NE5       30.05S
HAMMOND*       MOSUNNY   86  64  48 NE7       30.07S
HOUMA*         MOSUNNY   84  54  34 N9        30.03S
PORT FOURCHON* MOSUNNY   84  73  70 NE12      30.05S

$$

MSZ070-080>082-211800-
SOUTHERN MISSISSIPPI

CITY           SKY/WX    TMP DP  RH WIND       PRES   REMARKS
MCCOMB         SUNNY     84  64  50 N8        30.07S
GULFPORT       PTSUNNY   85  68  56 E5        30.03F
BILOXI         SUNNY     86  68  55 E5        30.04S
PASCAGOULA     MOSUNNY   85  67  54 E8        30.04S

$$

COASTAL OBSERVATIONS
LAKE AND NEARSHORE STATIONS

STATION/POSITION TIME  TEMP    WIND        PRES    WAVE
                       AIR SEA DIR/SP/G            HT/PER
                 (UTC) (F)     (DEG/KT/KT) (MB)    (FT/S)
PASCAGOULA       1700   85      70/ 11/ 13 1016.7
WAVELAND YACHT   1700   84     140/  2/  5 1016.5
GRAND ISLE       1700   84 81   80/  9/ 13 1017.3
SOUTHWEST PASS   1700   91 89   70/ 13/ 15 1016.1
NEW CANAL        1700   80 80   40/ 10/ 11 1017.6
SHELL BEACH      1700   81 78   60/ 13/ 15 1016.8

OFFSHORE STATIONS

STATION/POSITION TIME  TEMP    WIND        PRES    WAVE
                       AIR SEA DIR/SP/G            HT/PER
                 (UTC) (F)     (DEG/KT/KT) (MB)    (FT/S)
64 S DAUPHIN ISL 1618   81 84   90/ 17/ 21 1016.4    4/ 4

$$




USA.gov is the U.S. government's official web portal to all federal, state and local government web resources and services.